AOR-E (EGNOS/PRN 120) 1 24307U 96053A 08133.62801652 -.00000133 00000-0 10000-3 0 3046 2 24307 0.1142 34.0900 0006318 358.6714 48.5620 1.00270047 42770 IOR-W (EGNOS/PRN 126) 1 25153U 98006B 08133.65916676 .00000131 00000-0 10000-3 0 259 2 25153 0.4356 5.5807 0003980 45.6425 81.8091 1.00271658 37655 ARTEMIS (EGNOS/PRN 124) 1 26863U 01029A 08132.99892120 .00000119 00000-0 10000-3 0 4665 2 26863 6.4550 74.7871 0003012 347.6903 188.6682 1.00274685 26122 MTSAT-1R (MSAS/PRN 129) 1 28622U 05006A 08133.38731042 -.00000290 00000-0 10000-3 0 6122 2 28622 0.0541 87.6785 0001306 119.5035 302.8179 1.00270641 11730 ANIK F1R (WAAS/PRN 138) 1 28868U 05036A 08130.22364722 -.00000081 00000-0 00000+0 0 4990 2 28868 0.0082 213.9673 0002812 194.5677 152.0714 1.00271829 9848 GALAXY 15 (WAAS/PRN 135) 1 28884U 05041A 08130.49488875 .00000071 00000-0 10000-3 0 4341 2 28884 0.0550 86.7002 0002152 314.6841 231.4512 1.00272225 9437 MTSAT-2 (MSAS/PRN 137) 1 28937U 06004A 08133.65048322 -.00000252 00000-0 10000-3 0 4094 2 28937 0.0101 334.3803 0002850 67.2823 208.2965 1.00273123 8212